Time,TemperatureF,DewpointF,PressureIn,WindDirection,WindDirectionDegrees,WindSpeedMPH,WindSpeedGustMPH,Humidity,HourlyPrecipIn,Conditions,Clouds,dailyrainin,SoftwareType,DateUTC
2013-01-27 00:01:00,39.8,37.0,30.07,ESE,103,0.0,3.0,91,0.00,,,0.00,weatherlink.com 1.10,2013-01-27 08:01:00,
2013-01-27 00:16:00,39.7,37.0,30.07,East,97,2.0,5.0,91,0.00,,,0.00,weatherlink.com 1.10,2013-01-27 08:16:00,
2013-01-27 00:31:00,39.5,37.0,30.07,ENE,66,0.0,5.0,92,0.00,,,0.00,weatherlink.com 1.10,2013-01-27 08:31:00,
2013-01-27 00:46:00,39.2,37.0,30.07,NNE,20,0.0,5.0,92,0.00,,,0.00,weatherlink.com 1.10,2013-01-27 08:46:00,
2013-01-27 01:01:00,38.9,37.0,30.07,NNW,344,0.0,6.0,92,0.00,,,0.00,weatherlink.com 1.10,2013-01-27 09:01:00,
2013-01-27 01:16:00,39.2,37.0,30.07,NNE,23,1.0,3.0,91,0.00,,,0.00,weatherlink.com 1.10,2013-01-27 09:16:00,
2013-01-27 01:31:00,39.5,37.0,30.07,East,88,2.0,8.0,90,0.00,,,0.00,weatherlink.com 1.10,2013-01-27 09:31:00,
2013-01-27 01:46:00,39.7,37.0,30.07,ESE,108,2.0,9.0,88,0.00,,,0.00,weatherlink.com 1.10,2013-01-27 09:46:00,
2013-01-27 02:01:00,39.7,36.0,30.07,East,80,5.0,8.0,87,0.00,,,0.00,weatherlink.com 1.10,2013-01-27 10:01:00,
2013-01-27 02:16:00,39.6,36.0,30.07,East,81,2.0,12.0,86,0.00,,,0.00,weatherlink.com 1.10,2013-01-27 10:16:00,
2013-01-27 02:31:00,39.4,36.0,30.07,East,84,3.0,8.0,86,0.00,,,0.00,weatherlink.com 1.10,2013-01-27 10:31:00,
2013-01-27 02:46:00,39.2,35.0,30.07,East,80,0.0,8.0,86,0.00,,,0.00,weatherlink.com 1.10,2013-01-27 10:46:00,
2013-01-27 03:01:00,38.8,35.0,30.07,NW,323,4.0,7.0,86,0.00,,,0.00,weatherlink.com 1.10,2013-01-27 11:01:00,
2013-01-27 03:16:00,39.7,35.0,30.08,East,82,1.0,5.0,83,0.00,,,0.00,weatherlink.com 1.10,2013-01-27 11:16:00,
2013-01-27 03:32:00,39.7,35.0,30.08,East,98,3.0,7.0,83,0.00,,,0.00,weatherlink.com 1.10,2013-01-27 11:32:00,
2013-01-27 03:47:00,39.4,34.0,30.08,ENE,68,1.0,8.0,82,0.00,,,0.00,weatherlink.com 1.10,2013-01-27 11:47:00,
2013-01-27 04:02:00,39.2,34.0,30.08,ENE,57,1.0,6.0,82,0.00,,,0.00,weatherlink.com 1.10,2013-01-27 12:02:00,
2013-01-27 04:17:00,39.3,34.0,30.08,SE,129,1.0,7.0,81,0.00,,,0.00,weatherlink.com 1.10,2013-01-27 12:17:00,
2013-01-27 04:32:00,39.2,34.0,30.08,NE,39,2.0,4.0,81,0.00,,,0.00,weatherlink.com 1.10,2013-01-27 12:32:00,
2013-01-27 04:47:00,39.2,34.0,30.08,ENE,64,4.0,6.0,81,0.00,,,0.00,weatherlink.com 1.10,2013-01-27 12:47:00,
2013-01-27 05:02:00,39.2,34.0,30.08,East,95,2.0,7.0,80,0.00,,,0.00,weatherlink.com 1.10,2013-01-27 13:02:00,
2013-01-27 05:17:00,38.8,33.0,30.08,ESE,107,3.0,6.0,80,0.00,,,0.00,weatherlink.com 1.10,2013-01-27 13:17:00,
2013-01-27 05:32:00,38.8,33.0,30.09,NE,38,1.0,7.0,80,0.00,,,0.00,weatherlink.com 1.10,2013-01-27 13:32:00,
2013-01-27 05:47:00,38.8,33.0,30.09,East,100,5.0,5.0,80,0.00,,,0.00,weatherlink.com 1.10,2013-01-27 13:47:00,
2013-01-27 06:02:00,38.7,33.0,30.09,West,261,0.0,3.0,80,0.00,,,0.00,weatherlink.com 1.10,2013-01-27 14:02:00,
2013-01-27 06:17:00,38.9,33.0,30.09,WNW,302,2.0,8.0,80,0.00,,,0.00,weatherlink.com 1.10,2013-01-27 14:17:00,
2013-01-27 06:32:00,39.4,33.0,30.10,NNW,348,3.0,8.0,78,0.00,,,0.00,weatherlink.com 1.10,2013-01-27 14:32:00,
2013-01-27 06:47:00,39.3,33.0,30.11,East,92,0.0,6.0,79,0.00,,,0.00,weatherlink.com 1.10,2013-01-27 14:47:00,
2013-01-27 07:02:00,38.8,33.0,30.11,NW,311,1.0,4.0,78,0.00,,,0.00,weatherlink.com 1.10,2013-01-27 15:02:00,
2013-01-27 07:17:00,38.7,33.0,30.12,East,86,3.0,3.0,79,0.00,,,0.00,weatherlink.com 1.10,2013-01-27 15:17:00,
2013-01-27 07:32:00,38.6,33.0,30.12,NNE,33,1.0,6.0,80,0.00,,,0.00,weatherlink.com 1.10,2013-01-27 15:32:00,
2013-01-27 07:47:00,38.6,33.0,30.13,North,356,1.0,2.0,79,0.00,,,0.00,weatherlink.com 1.10,2013-01-27 15:47:00,
2013-01-27 08:02:00,38.2,33.0,30.14,NNE,13,0.0,4.0,81,0.00,,,0.00,weatherlink.com 1.10,2013-01-27 16:02:00,
2013-01-27 08:17:00,39.6,34.0,30.15,North,360,0.0,4.0,80,0.00,,,0.00,weatherlink.com 1.10,2013-01-27 16:17:00,
2013-01-27 08:32:00,41.8,35.0,30.15,North,7,0.0,4.0,76,0.00,,,0.00,weatherlink.com 1.10,2013-01-27 16:32:00,
2013-01-27 08:47:00,42.7,35.0,30.16,North,3,0.0,3.0,74,0.00,,,0.00,weatherlink.com 1.10,2013-01-27 16:47:00,
2013-01-27 09:02:00,42.8,35.0,30.16,ESE,103,1.0,4.0,73,0.00,,,0.00,weatherlink.com 1.10,2013-01-27 17:02:00,
2013-01-27 09:17:00,42.7,35.0,30.17,NNE,24,0.0,2.0,73,0.00,,,0.00,weatherlink.com 1.10,2013-01-27 17:17:00,
2013-01-27 09:32:00,43.6,35.0,30.17,WNW,286,0.0,3.0,71,0.00,,,0.00,weatherlink.com 1.10,2013-01-27 17:32:00,
2013-01-27 09:47:00,43.9,35.0,30.18,East,84,0.0,3.0,72,0.00,,,0.00,weatherlink.com 1.10,2013-01-27 17:47:00,
2013-01-27 10:02:00,44.6,35.0,30.18,NNW,330,1.0,3.0,70,0.00,,,0.00,weatherlink.com 1.10,2013-01-27 18:02:00,
2013-01-27 10:17:00,47.1,37.0,30.18,WNW,283,0.0,4.0,68,0.00,,,0.00,weatherlink.com 1.10,2013-01-27 18:17:00,
2013-01-27 10:33:00,49.0,38.0,30.18,NW,326,0.0,3.0,65,0.00,,,0.00,weatherlink.com 1.10,2013-01-27 18:33:00,
2013-01-27 10:48:00,50.7,39.0,30.19,WNW,290,1.0,3.0,64,0.00,,,0.00,weatherlink.com 1.10,2013-01-27 18:48:00,
2013-01-27 11:03:00,52.1,38.0,30.19,North,11,0.0,4.0,58,0.00,,,0.00,weatherlink.com 1.10,2013-01-27 19:03:00,
2013-01-27 11:18:00,52.8,39.0,30.19,West,273,0.0,3.0,60,0.00,,,0.00,weatherlink.com 1.10,2013-01-27 19:18:00,
2013-01-27 11:33:00,52.9,36.0,30.18,SE,132,0.0,3.0,54,0.00,,,0.00,weatherlink.com 1.10,2013-01-27 19:33:00,
2013-01-27 11:48:00,54.4,39.0,30.18,NE,42,1.0,2.0,57,0.00,,,0.00,weatherlink.com 1.10,2013-01-27 19:48:00,
2013-01-27 12:03:00,55.2,38.0,30.18,NNE,28,0.0,5.0,53,0.00,,,0.00,weatherlink.com 1.10,2013-01-27 20:03:00,
2013-01-27 12:18:00,55.5,37.0,30.17,NW,318,0.0,4.0,51,0.00,,,0.00,weatherlink.com 1.10,2013-01-27 20:18:00,
2013-01-27 12:33:00,55.9,36.0,30.16,ESE,107,3.0,4.0,47,0.00,,,0.00,weatherlink.com 1.10,2013-01-27 20:33:00,
2013-01-27 12:48:00,56.1,37.0,30.16,NNW,338,0.0,2.0,50,0.00,,,0.00,weatherlink.com 1.10,2013-01-27 20:48:00,
2013-01-27 13:03:00,55.4,37.0,30.15,SE,133,3.0,11.0,50,0.00,,,0.00,weatherlink.com 1.10,2013-01-27 21:03:00,
2013-01-27 13:18:00,54.6,36.0,30.15,East,101,3.0,11.0,49,0.00,,,0.00,weatherlink.com 1.10,2013-01-27 21:18:00,
2013-01-27 13:33:00,55.3,36.0,30.14,ESE,108,1.0,4.0,49,0.00,,,0.00,weatherlink.com 1.10,2013-01-27 21:33:00,
2013-01-27 13:48:00,54.9,35.0,30.14,East,81,1.0,8.0,48,0.00,,,0.00,weatherlink.com 1.10,2013-01-27 21:48:00,
2013-01-27 14:03:00,54.5,37.0,30.14,NW,317,0.0,8.0,53,0.00,,,0.00,weatherlink.com 1.10,2013-01-27 22:03:00,
2013-01-27 14:18:00,54.6,37.0,30.13,NW,321,0.0,7.0,52,0.00,,,0.00,weatherlink.com 1.10,2013-01-27 22:18:00,
2013-01-27 14:33:00,55.4,38.0,30.14,NNW,342,1.0,6.0,53,0.00,,,0.00,weatherlink.com 1.10,2013-01-27 22:33:00,
2013-01-27 14:48:00,54.9,37.0,30.13,SSE,153,1.0,10.0,51,0.00,,,0.00,weatherlink.com 1.10,2013-01-27 22:48:00,
2013-01-27 15:03:00,55.2,35.0,30.14,NNW,345,2.0,6.0,46,0.00,,,0.00,weatherlink.com 1.10,2013-01-27 23:03:00,
2013-01-27 15:18:00,54.4,33.0,30.14,NW,310,3.0,9.0,45,0.00,,,0.00,weatherlink.com 1.10,2013-01-27 23:18:00,
2013-01-27 15:33:00,54.3,36.0,30.13,ENE,71,2.0,4.0,51,0.00,,,0.00,weatherlink.com 1.10,2013-01-27 23:33:00,
2013-01-27 15:48:00,54.2,36.0,30.13,NNW,337,1.0,7.0,50,0.00,,,0.00,weatherlink.com 1.10,2013-01-27 23:48:00,
2013-01-27 16:03:00,53.7,34.0,30.12,NE,55,2.0,9.0,48,0.00,,,0.00,weatherlink.com 1.10,2013-01-28 00:03:00,
2013-01-27 16:18:00,52.5,35.0,30.12,West,273,0.0,8.0,51,0.00,,,0.00,weatherlink.com 1.10,2013-01-28 00:18:00,
2013-01-27 16:33:00,52.8,34.0,30.13,ENE,61,2.0,5.0,50,0.00,,,0.00,weatherlink.com 1.10,2013-01-28 00:33:00,
2013-01-27 16:48:00,51.7,34.0,30.13,NNW,328,0.0,7.0,52,0.00,,,0.00,weatherlink.com 1.10,2013-01-28 00:48:00,
2013-01-27 17:03:00,49.7,35.0,30.13,ENE,68,0.0,8.0,57,0.00,,,0.00,weatherlink.com 1.10,2013-01-28 01:03:00,
2013-01-27 17:18:00,47.1,34.0,30.13,NW,318,3.0,9.0,61,0.00,,,0.00,weatherlink.com 1.10,2013-01-28 01:18:00,
2013-01-27 17:33:00,46.2,35.0,30.14,ENE,57,0.0,6.0,65,0.00,,,0.00,weatherlink.com 1.10,2013-01-28 01:33:00,
2013-01-27 17:48:00,45.6,35.0,30.14,East,80,5.0,8.0,66,0.00,,,0.00,weatherlink.com 1.10,2013-01-28 01:48:00,
2013-01-27 18:03:00,44.8,35.0,30.15,NNE,19,1.0,7.0,68,0.00,,,0.00,weatherlink.com 1.10,2013-01-28 02:03:00,
2013-01-27 18:18:00,44.3,35.0,30.15,West,263,2.0,7.0,70,0.00,,,0.00,weatherlink.com 1.10,2013-01-28 02:18:00,
2013-01-27 18:33:00,43.8,35.0,30.16,East,82,4.0,10.0,72,0.00,,,0.00,weatherlink.com 1.10,2013-01-28 02:33:00,
2013-01-27 18:48:00,43.3,35.0,30.16,NNE,31,0.0,4.0,73,0.00,,,0.00,weatherlink.com 1.10,2013-01-28 02:48:00,
2013-01-27 19:03:00,42.9,35.0,30.16,East,95,2.0,4.0,74,0.00,,,0.00,weatherlink.com 1.10,2013-01-28 03:03:00,
2013-01-27 19:18:00,42.7,36.0,30.16,NNW,332,1.0,8.0,76,0.00,,,0.00,weatherlink.com 1.10,2013-01-28 03:18:00,
2013-01-27 19:33:00,42.4,36.0,30.17,ENE,59,5.0,7.0,77,0.00,,,0.00,weatherlink.com 1.10,2013-01-28 03:33:00,
2013-01-27 19:48:00,42.4,36.0,30.17,ESE,108,1.0,10.0,77,0.00,,,0.00,weatherlink.com 1.10,2013-01-28 03:48:00,
2013-01-27 20:03:00,42.3,36.0,30.17,East,98,1.0,5.0,77,0.00,,,0.00,weatherlink.com 1.10,2013-01-28 04:03:00,
2013-01-27 20:18:00,42.3,35.0,30.17,NNE,32,5.0,6.0,76,0.00,,,0.00,weatherlink.com 1.10,2013-01-28 04:18:00,
2013-01-27 20:33:00,42.1,35.0,30.16,ESE,115,3.0,9.0,76,0.00,,,0.00,weatherlink.com 1.10,2013-01-28 04:33:00,
2013-01-27 20:48:00,41.9,35.0,30.16,ENE,71,1.0,8.0,77,0.00,,,0.00,weatherlink.com 1.10,2013-01-28 04:48:00,
2013-01-27 21:03:00,41.4,35.0,30.17,ENE,61,0.0,9.0,79,0.00,,,0.00,weatherlink.com 1.10,2013-01-28 05:03:00,
2013-01-27 21:18:00,40.9,36.0,30.16,SSE,157,0.0,10.0,81,0.00,,,0.00,weatherlink.com 1.10,2013-01-28 05:18:00,
2013-01-27 21:33:00,40.4,35.0,30.17,East,85,2.0,7.0,82,0.00,,,0.00,weatherlink.com 1.10,2013-01-28 05:33:00,
2013-01-27 21:48:00,40.3,36.0,30.17,NE,44,1.0,7.0,83,0.00,,,0.00,weatherlink.com 1.10,2013-01-28 05:48:00,
2013-01-27 22:03:00,40.4,36.0,30.17,ESE,103,1.0,10.0,83,0.00,,,0.00,weatherlink.com 1.10,2013-01-28 06:03:00,
2013-01-27 22:18:00,40.7,35.0,30.17,East,101,5.0,6.0,81,0.00,,,0.00,weatherlink.com 1.10,2013-01-28 06:18:00,
2013-01-27 22:33:00,40.6,35.0,30.17,NNE,16,0.0,5.0,81,0.00,,,0.00,weatherlink.com 1.10,2013-01-28 06:33:00,
2013-01-27 22:48:00,40.8,35.0,30.18,East,89,2.0,9.0,80,0.00,,,0.00,weatherlink.com 1.10,2013-01-28 06:48:00,
2013-01-27 23:03:00,40.9,35.0,30.18,NNE,24,4.0,6.0,80,0.00,,,0.00,weatherlink.com 1.10,2013-01-28 07:03:00,
2013-01-27 23:18:00,40.8,35.0,30.19,WNW,296,0.0,6.0,80,0.00,,,0.00,weatherlink.com 1.10,2013-01-28 07:18:00,
2013-01-27 23:33:00,40.9,35.0,30.20,ENE,58,0.0,3.0,79,0.00,,,0.00,weatherlink.com 1.10,2013-01-28 07:33:00,
2013-01-27 23:48:00,40.6,35.0,30.20,ENE,76,2.0,4.0,80,0.00,,,0.00,weatherlink.com 1.10,2013-01-28 07:48:00,